EZY221 EGJJ-EGHQ

Flight info

Callsign EZY221
Flight time 0h 29m
Altitude 18000
Route SKERY
Aircraft A320/M-SDE3FGHIRWY/LB1

Departure

Time 2026-05-09 20:25
Airport Jersey Airport (EGJJ)

Arrival

Time 2026-05-09 20:55
Airport Cornwall Airport Newquay (EGHQ)
Time Latitude Longitude Altitude Speed Heading
2026-05-09 20:04 49.20564 -2.19640 280 ft 0 kts 160°
2026-05-09 20:14 49.20580 -2.19649 283 ft 3 kts 160°
2026-05-09 20:15 49.20606 -2.19662 281 ft 4 kts 165°
2026-05-09 20:15 49.20632 -2.19669 281 ft 4 kts 185°
2026-05-09 20:15 49.20648 -2.19664 280 ft 0 kts 207°
2026-05-09 20:18 49.20642 -2.19669 280 ft 2 kts 207°
2026-05-09 20:18 49.20618 -2.19707 280 ft 7 kts 242°
2026-05-09 20:19 49.20611 -2.19768 280 ft 5 kts 265°
2026-05-09 20:19 49.20608 -2.19820 280 ft 5 kts 265°
2026-05-09 20:19 49.20605 -2.19872 285 ft 6 kts 264°
2026-05-09 20:19 49.20587 -2.19922 284 ft 5 kts 219°
2026-05-09 20:20 49.20556 -2.19930 280 ft 5 kts 179°
2026-05-09 20:20 49.20524 -2.19952 280 ft 8 kts 230°
2026-05-09 20:20 49.20533 -2.20064 280 ft 12 kts 287°
2026-05-09 20:20 49.20553 -2.20168 284 ft 10 kts 286°
2026-05-09 20:21 49.20578 -2.20292 287 ft 13 kts 287°
2026-05-09 20:21 49.20604 -2.20424 280 ft 12 kts 286°
2026-05-09 20:21 49.20617 -2.20500 280 ft 0 kts 284°
2026-05-09 20:23 49.20621 -2.20518 284 ft 8 kts 284°
2026-05-09 20:24 49.20627 -2.20605 281 ft 7 kts 271°
2026-05-09 20:24 49.20642 -2.20683 282 ft 10 kts 312°
2026-05-09 20:24 49.20698 -2.20678 282 ft 9 kts 45°
2026-05-09 20:24 49.20707 -2.20638 280 ft 0 kts 82°
2026-05-09 20:25 49.20715 -2.20536 280 ft 41 kts 83°
2026-05-09 20:25 49.20789 -2.19649 284 ft 124 kts 82°
2026-05-09 20:25 49.20925 -2.18085 639 ft 158 kts 82°
2026-05-09 20:25 49.21061 -2.16374 1527 ft 163 kts 81°
2026-05-09 20:26 49.21229 -2.14608 2052 ft 176 kts 80°
2026-05-09 20:26 49.21489 -2.12659 2387 ft 200 kts 71°
2026-05-09 20:26 49.22202 -2.10678 2810 ft 226 kts 52°
2026-05-09 20:26 49.23455 -2.09045 3277 ft 252 kts 31°
2026-05-09 20:27 49.25175 -2.08265 4095 ft 265 kts
2026-05-09 20:27 49.27005 -2.08615 4943 ft 276 kts 342°
2026-05-09 20:27 49.28640 -2.10191 5805 ft 282 kts 316°
2026-05-09 20:27 49.29935 -2.12447 6748 ft 283 kts 311°
2026-05-09 20:28 49.31234 -2.14741 7602 ft 286 kts 313°
2026-05-09 20:28 49.32579 -2.17034 8372 ft 293 kts 313°
2026-05-09 20:28 49.33961 -2.19356 9216 ft 297 kts 313°
2026-05-09 20:29 49.36765 -2.24205 10437 ft 320 kts 308°
2026-05-09 20:29 49.38201 -2.26972 10697 ft 341 kts 308°
2026-05-09 20:29 49.39701 -2.29866 11305 ft 349 kts 307°
2026-05-09 20:29 49.41269 -2.32742 12073 ft 352 kts 312°
2026-05-09 20:30 49.43017 -2.35389 12866 ft 355 kts 317°
2026-05-09 20:30 49.44892 -2.37896 13563 ft 360 kts 319°
2026-05-09 20:30 49.46832 -2.40357 14221 ft 364 kts 319°
2026-05-09 20:30 49.48770 -2.42881 14878 ft 366 kts 317°
2026-05-09 20:31 49.50684 -2.45493 15531 ft 369 kts 316°
2026-05-09 20:31 49.52585 -2.48182 15899 ft 371 kts 315°
2026-05-09 20:31 49.54463 -2.50896 15990 ft 369 kts 315°
2026-05-09 20:31 49.56321 -2.53600 16008 ft 366 kts 315°
2026-05-09 20:32 49.58167 -2.56290 16010 ft 365 kts 315°
2026-05-09 20:32 49.59993 -2.58942 16012 ft 365 kts 315°
2026-05-09 20:32 49.61841 -2.61613 16013 ft 364 kts 315°
2026-05-09 20:32 49.63696 -2.64289 16017 ft 365 kts 315°
2026-05-09 20:33 49.65548 -2.66965 16019 ft 365 kts 315°
2026-05-09 20:33 49.67400 -2.69643 16026 ft 365 kts 315°
2026-05-09 20:33 49.69254 -2.72327 16033 ft 366 kts 315°
2026-05-09 20:33 49.71108 -2.75017 16034 ft 365 kts 314°
2026-05-09 20:34 49.72960 -2.77706 16039 ft 366 kts 315°
2026-05-09 20:34 49.74810 -2.80400 16049 ft 365 kts 315°
2026-05-09 20:34 49.76659 -2.83095 16057 ft 365 kts 315°
2026-05-09 20:34 49.78509 -2.85789 16060 ft 365 kts 315°
2026-05-09 20:35 49.80361 -2.88485 16064 ft 365 kts 315°
2026-05-09 20:35 49.82209 -2.91181 16065 ft 365 kts 315°
2026-05-09 20:35 49.84056 -2.93878 16060 ft 365 kts 315°
2026-05-09 20:35 49.85904 -2.96579 16063 ft 365 kts 315°
2026-05-09 20:36 49.87752 -2.99285 16062 ft 365 kts 314°
2026-05-09 20:36 49.89595 -3.01992 16060 ft 366 kts 315°
2026-05-09 20:36 49.91443 -3.04703 16061 ft 366 kts 315°
2026-05-09 20:36 49.93289 -3.07413 16069 ft 365 kts 315°
2026-05-09 20:37 49.95132 -3.10124 16073 ft 365 kts 315°
2026-05-09 20:37 49.96976 -3.12840 16073 ft 365 kts 315°
2026-05-09 20:37 49.98758 -3.15634 16075 ft 363 kts 308°
2026-05-09 20:37 50.00188 -3.18853 16083 ft 361 kts 297°
2026-05-09 20:38 50.01185 -3.22366 16086 ft 360 kts 288°
2026-05-09 20:38 50.02032 -3.26022 16083 ft 360 kts 288°
2026-05-09 20:38 50.02883 -3.29678 16086 ft 360 kts 288°
2026-05-09 20:38 50.03733 -3.33337 16083 ft 360 kts 288°
2026-05-09 20:39 50.04581 -3.36996 16079 ft 360 kts 288°
2026-05-09 20:39 50.05427 -3.40661 16073 ft 360 kts 288°
2026-05-09 20:39 50.06271 -3.44326 16076 ft 360 kts 288°
2026-05-09 20:39 50.07115 -3.47992 16079 ft 360 kts 288°
2026-05-09 20:40 50.07958 -3.51663 16077 ft 360 kts 288°
2026-05-09 20:40 50.08799 -3.55335 16077 ft 360 kts 288°
2026-05-09 20:40 50.09641 -3.59006 16076 ft 360 kts 288°
2026-05-09 20:40 50.10483 -3.62680 16078 ft 360 kts 288°
2026-05-09 20:41 50.11325 -3.66357 16082 ft 360 kts 288°
2026-05-09 20:41 50.12164 -3.70037 16083 ft 360 kts 288°
2026-05-09 20:41 50.13003 -3.73715 16081 ft 360 kts 288°
2026-05-09 20:41 50.13831 -3.77352 16067 ft 361 kts 288°
2026-05-09 20:42 50.14668 -3.81043 16063 ft 361 kts 288°
2026-05-09 20:42 50.15504 -3.84740 16063 ft 362 kts 288°
2026-05-09 20:42 50.16343 -3.88446 16066 ft 362 kts 288°
2026-05-09 20:42 50.17181 -3.92152 16067 ft 362 kts 288°
2026-05-09 20:43 50.18007 -3.95823 15741 ft 357 kts 288°
2026-05-09 20:43 50.18816 -3.99427 15565 ft 346 kts 288°
2026-05-09 20:43 50.19541 -4.02950 15425 ft 335 kts 285°
2026-05-09 20:43 50.20192 -4.06410 15130 ft 331 kts 285°
2026-05-09 20:44 50.20831 -4.09842 14771 ft 328 kts 285°
2026-05-09 20:44 50.21462 -4.13258 14400 ft 327 kts 285°
2026-05-09 20:44 50.22092 -4.16661 14012 ft 326 kts 285°
2026-05-09 20:44 50.22706 -4.20056 13634 ft 324 kts 285°
2026-05-09 20:45 50.23308 -4.23434 13201 ft 323 kts 285°
2026-05-09 20:45 50.23905 -4.26812 12769 ft 322 kts 285°
2026-05-09 20:45 50.24488 -4.30185 12364 ft 321 kts 285°
2026-05-09 20:45 50.25051 -4.33494 11990 ft 319 kts 285°
2026-05-09 20:46 50.25612 -4.36834 11594 ft 317 kts 285°
2026-05-09 20:46 50.26162 -4.40162 11185 ft 316 kts 285°
2026-05-09 20:46 50.26703 -4.43481 10785 ft 315 kts 285°
2026-05-09 20:46 50.27190 -4.46808 10445 ft 312 kts 276°
2026-05-09 20:47 50.26996 -4.50099 10301 ft 302 kts 251°
2026-05-09 20:47 50.25989 -4.52895 9824 ft 293 kts 226°
2026-05-09 20:47 50.24533 -4.55119 9092 ft 292 kts 220°
2026-05-09 20:47 50.23020 -4.57247 8479 ft 293 kts 220°
2026-05-09 20:48 50.21552 -4.59313 7906 ft 289 kts 219°
2026-05-09 20:48 50.20567 -4.60709 7554 ft 289 kts 220°
2026-05-09 20:48 50.19100 -4.62833 6902 ft 287 kts 224°
2026-05-09 20:48 50.18050 -4.65451 6242 ft 288 kts 251°
2026-05-09 20:49 50.17851 -4.68533 5551 ft 286 kts 280°
2026-05-09 20:49 50.18563 -4.71318 5124 ft 267 kts 312°
2026-05-09 20:49 50.19901 -4.73074 4735 ft 245 kts 341°
2026-05-09 20:49 50.21491 -4.73982 4094 ft 242 kts 348°
2026-05-09 20:50 50.23100 -4.74709 3601 ft 238 kts 349°
2026-05-09 20:50 50.24693 -4.75397 3501 ft 238 kts 349°
2026-05-09 20:50 50.26297 -4.76077 3507 ft 239 kts 350°
2026-05-09 20:50 50.27880 -4.76755 3507 ft 229 kts 350°
2026-05-09 20:51 50.29382 -4.77416 3373 ft 222 kts 350°
2026-05-09 20:51 50.30857 -4.78063 3077 ft 218 kts 349°
2026-05-09 20:51 50.32308 -4.78694 2786 ft 216 kts 349°
2026-05-09 20:51 50.33750 -4.79323 2557 ft 213 kts 350°
2026-05-09 20:52 50.35155 -4.80074 2508 ft 217 kts 337°
2026-05-09 20:52 50.36422 -4.81356 2502 ft 211 kts 331°
2026-05-09 20:52 50.37562 -4.82699 2504 ft 207 kts 326°
2026-05-09 20:52 50.38420 -4.84478 2406 ft 200 kts 306°
2026-05-09 20:53 50.39097 -4.86326 2144 ft 190 kts 307°
2026-05-09 20:53 50.39745 -4.88066 1890 ft 179 kts 308°
2026-05-09 20:53 50.40355 -4.89688 1652 ft 166 kts 309°
2026-05-09 20:53 50.40929 -4.91206 1441 ft 159 kts 309°
2026-05-09 20:54 50.41486 -4.92676 1243 ft 155 kts 309°
2026-05-09 20:54 50.42030 -4.94113 1034 ft 151 kts 308°
2026-05-09 20:54 50.42559 -4.95513 835 ft 147 kts 307°
2026-05-09 20:54 50.43068 -4.96878 609 ft 144 kts 308°
2026-05-09 20:55 50.43575 -4.98224 440 ft 142 kts 309°
2026-05-09 20:55 50.44079 -4.99493 358 ft 124 kts 303°
2026-05-09 20:55 50.44367 -5.00266 334 ft 49 kts 300°
2026-05-09 20:55 50.44535 -5.00736 320 ft 48 kts 299°
2026-05-09 20:56 50.44669 -5.01099 312 ft 18 kts 298°
2026-05-09 20:56 50.44805 -5.00991 313 ft 14 kts 89°
2026-05-09 20:56 50.44784 -5.00878 316 ft 6 kts 119°
2026-05-09 20:57 50.44768 -5.00835 317 ft 3 kts 121°
2026-05-09 20:57 50.44764 -5.00824 317 ft 0 kts 121°
2026-05-09 20:57 50.44763 -5.00822 317 ft 2 kts 121°
2026-05-09 20:57 50.44752 -5.00792 318 ft 1 kts 121°
2026-05-09 20:58 50.44751 -5.00789 318 ft 1 kts 121°
2026-05-09 20:58 50.44747 -5.00779 318 ft 1 kts 121°
2026-05-09 20:58 50.44738 -5.00757 318 ft 2 kts 121°
2026-05-09 20:58 50.44727 -5.00727 319 ft 6 kts 121°
2026-05-09 20:59 50.44709 -5.00680 320 ft 5 kts 121°
2026-05-09 20:59 50.44683 -5.00614 322 ft 6 kts 121°
2026-05-09 20:59 50.44671 -5.00571 323 ft 6 kts 107°
2026-05-09 21:00 50.44677 -5.00480 325 ft 1 kts 78°
2026-05-09 21:00 50.44681 -5.00458 325 ft 2 kts 75°
2026-05-09 21:00 50.44681 -5.00456 325 ft 0 kts 75°